Wind_Speed
14 14 14 15 15 15 16 15 15 14 15 16 16 17 18 18 18 18 18 18 18 17 16 17 17 18 18 18 17 17 18 18 19 19 20 20 21 22
15 15 16 17 17 17 17 17 17 17 17 17 17 18 19 20 20 20 20 20 20 20 19 19 19 19 19 19 19 19 19 20 20 21 21 21 22 22
16 17 18 18 18 18 19 19 19 19 19 18 20 20 21 21 22 22 22 22 22 22 21 21 20 20 20 20 21 22 22 22 22 22 22 22 22 23
18 19 19 20 19 20 20 21 21 21 21 21 21 22 22 23 23 23 23 23 23 23 23 22 22 22 21 21 21 22 22 23 23 23 24 24 23 23
20 21 21 21 21 21 22 22 22 22 23 23 23 23 23 23 24 24 24 24 24 24 23 23 22 22 22 21 21 22 23 24 25 25 25 26 26 25
21 22 22 23 23 23 23 23 23 23 23 23 23 24 24 24 24 24 24 24 24 25 24 24 23 23 23 23 23 23 24 25 26 26 27 27 27 27
23 24 24 24 24 24 24 24 24 24 24 24 25 25 25 25 26 25 26 26 25 25 25 24 24 24 24 24 24 24 25 25 27 28 28 28 29 29
24 24 25 25 25 25 25 25 25 25 25 26 26 26 27 27 26 27 27 26 26 26 26 25 25 25 25 25 25 26 26 26 27 28 29 29 30 30
25 25 26 26 26 26 26 26 26 26 27 27 27 27 27 27 27 27 28 28 27 27 28 27 27 27 27 27 26 26 27 27 28 29 30 30 30 31
27 27 27 27 27 27 26 26 27 27 27 28 27 28 28 28 28 28 28 28 28 29 29 28 27 27 27 28 27 27 28 29 30 31 31 31 31 32
27 28 28 28 28 28 27 28 28 28 28 29 28 28 29 29 29 28 29 29 28 29 29 28 28 28 27 27 28 28 28 29 31 32 33 33 32 33
28 28 28 28 28 28 28 27 27 28 28 28 28 28 28 29 29 29 28 28 28 27 27 27 27 27 27 27 28 29 29 29 30 31 33 33 33 33
28 28 28 28 28 28 28 28 28 28 27 27 28 28 28 28 28 28 28 28 28 28 27 27 27 28 28 28 28 29 29 30 30 30 31 32 33 33
28 28 28 29 29 29 29 29 29 29 28 28 29 28 28 28 28 28 28 28 28 28 28 28 28 28 29 29 29 29 29 29 30 30 30 31 32 33
28 29 29 29 29 29 29 29 29 29 29 29 28 28 28 28 29 29 29 29 28 28 28 29 29 29 29 29 29 29 29 30 30 30 30 31 31 32
29 30 30 30 29 29 30 30 30 30 30 29 29 29 29 29 29 29 29 29 29 28 29 30 30 30 30 30 29 29 29 30 30 31 31 31 31 30
30 30 30 30 30 30 31 31 31 30 30 29 29 30 30 29 29 29 30 30 30 30 30 31 31 31 31 31 30 30 30 30 30 31 31 31 31 31
31 30 30 29 30 31 31 30 30 31 30 30 30 30 30 30 30 30 31 31 31 31 31 32 32 32 32 31 31 31 31 31 31 31 31 31 31 31
30 30 29 29 30 30 30 30 31 31 31 31 31 31 31 32 32 31 31 31 31 31 32 32 32 32 31 31 31 31 31 31 30 30 31 31 31 31
30 30 30 30 30 30 30 30 31 31 31 31 31 31 32 32 32 32 31 31 31 31 31 31 31 30 30 30 30 30 30 30 30 31 31 31 31 31
31 31 30 30 30 30 31 31 31 31 31 31 31 31 31 31 31 30 30 31 31 31 30 30 30 30 30 30 29 29 29 30 30 31 31 31 31 31
31 31 30 30 30 30 31 31 31 31 31 30 30 30 31 31 31 31 30 30 30 30 29 30 30 30 30 30 29 29 29 29 30 30 31 31 31 30
31 31 31 31 31 31 30 30 30 30 30 30 30 30 31 31 31 31 31 30 30 29 29 28 28 28 28 29 29 28 29 29 29 30 30 30 31 31
Wind_Direction
299 298 300 296 292 291 289 286 287 287 286 288 289 288 289 290 291 292 293 293 292 292 288 284 282 280 276 273 266 263 263 262 260 258 257 256 256 255
301 302 304 301 294 292 290 288 289 290 288 288 289 288 287 287 288 289 290 292 293 292 290 287 283 279 277 272 269 265 262 262 262 261 258 257 257 258
300 300 301 303 300 293 291 290 290 290 287 287 287 287 286 284 284 286 287 288 289 288 288 287 284 280 277 273 269 266 263 260 259 258 257 257 259 261
300 300 299 298 298 295 293 291 290 289 287 286 286 286 286 285 285 285 285 284 285 285 285 284 283 280 279 277 272 268 264 261 259 259 259 260 261 262
299 300 299 296 296 295 293 291 290 290 289 286 285 285 286 285 284 285 285 283 283 283 283 281 280 278 279 278 275 270 267 262 260 260 260 261 262 262
299 300 299 298 296 294 292 290 288 289 289 288 288 287 286 284 283 284 284 284 283 281 280 280 277 277 278 277 274 271 269 265 261 259 260 261 261 260
297 298 298 298 297 295 293 290 288 288 289 291 290 289 287 285 285 286 286 284 283 282 280 280 278 277 278 277 274 272 270 268 264 262 262 260 260 260
295 296 297 297 296 295 293 290 288 288 288 289 290 289 288 286 286 286 286 285 283 280 279 279 277 277 277 276 275 273 270 268 267 265 263 262 261 259
298 297 296 296 297 295 293 291 289 289 289 290 290 291 289 287 285 285 285 283 282 281 279 277 276 276 277 277 275 272 269 266 266 266 265 263 262 260
297 297 297 296 295 294 293 291 291 292 292 292 291 290 288 287 285 285 284 283 283 281 280 278 275 276 276 276 274 272 271 270 268 267 266 265 263 260
299 298 297 295 294 294 293 292 293 294 293 293 291 290 288 287 285 284 285 284 283 281 280 278 277 277 276 275 276 274 272 272 270 268 267 266 265 262
299 299 297 295 293 293 293 293 294 294 293 292 291 291 290 290 289 287 287 284 284 282 279 278 277 277 278 277 276 276 276 274 271 269 267 266 265 264
299 298 297 297 294 294 293 292 293 294 293 293 293 291 292 292 292 290 288 286 285 283 280 278 278 278 279 278 277 277 276 274 273 272 270 267 265 264
298 297 296 295 295 294 293 292 293 293 292 292 292 291 291 291 291 291 289 286 284 283 281 281 280 280 280 278 276 276 276 275 273 273 272 270 268 266
298 296 294 294 294 294 293 293 292 293 292 292 291 290 289 290 291 291 289 287 285 283 283 282 282 281 281 279 277 276 275 274 273 273 272 270 268 266
298 296 295 295 293 293 293 293 292 292 292 291 290 290 290 289 290 290 289 288 287 286 284 283 283 282 281 280 278 277 276 275 273 273 272 269 267 266
300 298 295 295 293 293 292 291 291 291 292 291 291 292 291 291 291 291 290 289 288 287 285 283 282 282 281 280 279 277 276 275 274 273 272 269 266 266
300 299 295 293 292 293 293 292 292 292 293 293 293 292 291 291 291 290 290 290 290 288 286 284 282 281 280 279 278 278 277 275 273 272 271 269 268 267
298 298 296 294 293 293 293 293 294 294 293 292 292 292 291 291 290 289 290 290 290 289 287 285 283 281 279 278 279 278 277 275 272 270 270 270 268 267
297 297 297 296 295 294 293 294 295 295 294 293 292 293 292 292 291 290 291 290 290 289 288 286 284 282 280 279 278 278 277 274 272 270 270 269 267 267
297 297 297 296 296 295 294 294 296 297 296 295 294 294 293 292 292 291 291 291 290 289 289 288 287 285 281 280 278 278 277 275 272 271 270 269 268 266
298 297 298 298 298 296 296 296 296 297 296 296 295 295 295 295 293 292 291 292 291 289 287 287 288 286 283 281 280 279 278 276 273 273 272 271 269 266
299 298 298 298 297 296 296 297 296 296 295 295 296 296 296 296 293 292 291 291 291 290 288 288 288 288 286 284 282 281 279 278 277 275 273 272 269 267
Height
5857 5855 5854 5852 5850 5849 5848 5847 5847 5846 5845 5843 5842 5841 5839 5838 5837 5836 5834 5833 5832 5831 5829 5828 5827 5826 5826 5826 5826 5827 5827 5828 5829 5830 5830 5831 5832 5833
5854 5852 5850 5848 5847 5845 5844 5843 5842 5841 5840 5839 5838 5836 5835 5833 5832 5831 5830 5828 5827 5826 5825 5824 5822 5822 5821 5821 5821 5821 5822 5823 5824 5824 5825 5826 5827 5827
5849 5848 5846 5844 5843 5841 5839 5838 5837 5836 5835 5834 5832 5831 5830 5828 5827 5825 5824 5823 5822 5820 5819 5818 5817 5816 5816 5815 5815 5815 5816 5817 5818 5819 5819 5820 5821 5822
5845 5843 5841 5840 5838 5836 5834 5833 5832 5830 5829 5828 5827 5825 5824 5822 5821 5819 5818 5817 5816 5814 5813 5812 5811 5810 5810 5809 5809 5809 5810 5811 5812 5812 5813 5814 5815 5815
5840 5838 5836 5834 5832 5830 5829 5827 5826 5824 5822 5821 5820 5819 5817 5816 5814 5813 5812 5810 5809 5808 5807 5806 5805 5804 5804 5804 5803 5803 5803 5804 5805 5806 5806 5807 5808 5808
5835 5832 5830 5828 5826 5824 5822 5820 5819 5817 5816 5814 5813 5811 5810 5809 5807 5806 5805 5804 5803 5801 5800 5799 5798 5798 5797 5797 5796 5796 5796 5796 5797 5798 5799 5800 5801 5801
5829 5826 5824 5822 5819 5817 5816 5814 5812 5811 5809 5807 5805 5804 5803 5801 5800 5799 5798 5796 5795 5794 5793 5792 5791 5791 5790 5790 5789 5789 5789 5789 5789 5790 5791 5792 5793 5793
5823 5820 5817 5815 5813 5810 5809 5807 5805 5803 5802 5800 5798 5797 5795 5793 5792 5791 5789 5789 5788 5787 5785 5785 5784 5783 5783 5782 5782 5781 5781 5781 5782 5782 5782 5783 5783 5784
5815 5813 5810 5808 5806 5804 5802 5800 5798 5796 5794 5793 5791 5789 5787 5785 5784 5783 5781 5780 5779 5778 5777 5777 5776 5775 5775 5774 5774 5773 5773 5773 5773 5773 5773 5774 5774 5775
5808 5805 5803 5801 5798 5797 5795 5793 5791 5789 5787 5784 5782 5780 5778 5776 5775 5774 5772 5771 5770 5769 5767 5767 5767 5766 5766 5765 5765 5764 5764 5764 5764 5764 5764 5765 5765 5766
5801 5798 5796 5793 5791 5789 5787 5785 5783 5781 5778 5776 5774 5771 5769 5767 5766 5764 5763 5762 5761 5760 5759 5758 5758 5757 5756 5756 5755 5755 5754 5754 5754 5754 5754 5755 5755 5756
5793 5790 5788 5785 5783 5781 5779 5777 5775 5772 5770 5767 5765 5763 5761 5759 5757 5755 5754 5752 5751 5751 5750 5749 5749 5748 5748 5747 5746 5745 5745 5744 5744 5744 5744 5744 5744 5745
5785 5782 5780 5777 5775 5772 5770 5769 5766 5764 5762 5760 5757 5755 5753 5751 5749 5747 5746 5744 5743 5742 5741 5740 5740 5739 5738 5738 5737 5736 5735 5735 5734 5734 5734 5734 5735 5735
5777 5774 5772 5769 5766 5764 5762 5760 5758 5755 5753 5751 5749 5747 5746 5744 5741 5739 5738 5736 5734 5733 5732 5731 5730 5729 5729 5728 5727 5726 5725 5725 5724 5724 5724 5724 5724 5724
5769 5766 5763 5761 5758 5756 5754 5751 5749 5747 5745 5743 5741 5739 5737 5735 5733 5731 5729 5727 5725 5724 5723 5722 5721 5720 5719 5718 5717 5717 5716 5715 5714 5714 5713 5713 5713 5713
5761 5758 5755 5753 5750 5748 5745 5743 5741 5739 5737 5735 5733 5731 5729 5726 5724 5722 5720 5718 5717 5716 5714 5712 5711 5710 5709 5708 5707 5706 5705 5705 5704 5703 5703 5703 5702 5703
5752 5749 5747 5744 5742 5740 5737 5735 5733 5730 5728 5726 5724 5721 5719 5717 5715 5713 5711 5709 5708 5706 5704 5703 5701 5699 5698 5697 5696 5695 5694 5694 5693 5693 5692 5692 5692 5692
5744 5741 5738 5735 5733 5731 5728 5726 5724 5721 5719 5717 5715 5712 5710 5708 5706 5704 5701 5699 5697 5696 5694 5692 5690 5689 5687 5686 5685 5684 5683 5682 5682 5681 5681 5682 5682 5682
5735 5732 5729 5727 5724 5722 5720 5717 5715 5713 5710 5708 5705 5703 5701 5698 5696 5694 5691 5689 5687 5685 5683 5681 5679 5678 5676 5675 5674 5672 5672 5671 5670 5671 5671 5671 5671 5672
5727 5724 5721 5719 5716 5713 5711 5709 5706 5703 5701 5698 5696 5693 5691 5688 5686 5683 5681 5679 5677 5674 5672 5670 5668 5666 5665 5664 5663 5661 5660 5660 5660 5660 5660 5660 5660 5661
5719 5716 5713 5710 5707 5705 5702 5699 5697 5694 5691 5688 5686 5683 5681 5678 5676 5673 5671 5669 5666 5664 5662 5660 5658 5656 5654 5653 5652 5651 5650 5649 5648 5648 5648 5649 5649 5650
5710 5707 5704 5701 5698 5696 5693 5690 5687 5685 5682 5679 5676 5674 5671 5669 5666 5664 5661 5659 5656 5654 5652 5650 5648 5645 5643 5642 5641 5640 5639 5638 5638 5637 5637 5637 5637 5638
5701 5698 5695 5692 5689 5686 5684 5681 5678 5675 5673 5670 5667 5664 5662 5659 5657 5654 5652 5649 5647 5644 5642 5640 5637 5635 5633 5631 5630 5630 5629 5628 5627 5627 5626 5626 5626 5627